Year,Month,Day,Hour,Minute,Value (Times are PST for temperature in C)
2017,05,20,00,00,14.60
2017,05,20,00,01,14.60
2017,05,20,00,02,14.50
2017,05,20,00,03,14.50
2017,05,20,00,04,14.50
2017,05,20,00,05,14.50
2017,05,20,00,06,14.50
2017,05,20,00,07,14.50
2017,05,20,00,08,14.40
2017,05,20,00,09,14.40
2017,05,20,00,10,14.40
2017,05,20,00,11,14.40
2017,05,20,00,12,14.40
2017,05,20,00,13,14.40
2017,05,20,00,14,14.30
2017,05,20,00,15,14.30
2017,05,20,00,16,14.30
2017,05,20,00,17,14.30
2017,05,20,00,18,14.30
2017,05,20,00,19,14.30
2017,05,20,00,20,14.30
2017,05,20,00,21,14.30
2017,05,20,00,22,14.20
2017,05,20,00,23,14.20
2017,05,20,00,24,14.20
2017,05,20,00,25,14.20
2017,05,20,00,26,14.20
2017,05,20,00,27,14.20
2017,05,20,00,28,14.10
2017,05,20,00,29,14.10
2017,05,20,00,30,14.10
2017,05,20,00,31,14.10
2017,05,20,00,32,14.10
2017,05,20,00,33,14.10
2017,05,20,00,34,14.00
2017,05,20,00,35,14.00
2017,05,20,00,36,14.00
2017,05,20,00,37,13.90
2017,05,20,00,38,13.90
2017,05,20,00,39,13.90
2017,05,20,00,40,13.90
2017,05,20,00,41,13.90
2017,05,20,00,42,13.90
2017,05,20,00,43,13.90
2017,05,20,00,44,13.90
2017,05,20,00,45,13.80
2017,05,20,00,46,13.80
2017,05,20,00,47,13.80
2017,05,20,00,48,13.80
2017,05,20,00,49,13.80
2017,05,20,00,50,13.80
2017,05,20,00,51,13.70
2017,05,20,00,52,13.70
2017,05,20,00,53,13.70
2017,05,20,00,54,13.70
2017,05,20,00,55,13.60
2017,05,20,00,56,13.60
2017,05,20,00,57,13.60
2017,05,20,00,58,13.50
2017,05,20,00,59,13.50
2017,05,20,01,00,13.40
2017,05,20,01,01,13.40
2017,05,20,01,02,13.30
2017,05,20,01,03,13.30
2017,05,20,01,04,13.30
2017,05,20,01,05,13.30
2017,05,20,01,06,13.30
2017,05,20,01,07,13.30
2017,05,20,01,08,13.20
2017,05,20,01,09,13.20
2017,05,20,01,10,13.20
2017,05,20,01,11,13.20
2017,05,20,01,12,13.10
2017,05,20,01,13,13.10
2017,05,20,01,14,13.10
2017,05,20,01,15,13.10
2017,05,20,01,16,13.10
2017,05,20,01,17,13.10
2017,05,20,01,18,13.10
2017,05,20,01,19,13.10
2017,05,20,01,20,13.10
2017,05,20,01,21,13.00
2017,05,20,01,22,13.00
2017,05,20,01,23,13.00
2017,05,20,01,24,13.00
2017,05,20,01,25,13.00
2017,05,20,01,26,12.90
2017,05,20,01,27,12.90
2017,05,20,01,28,12.90
2017,05,20,01,29,12.90
2017,05,20,01,30,12.90
2017,05,20,01,31,12.90
2017,05,20,01,32,12.90
2017,05,20,01,33,12.80
2017,05,20,01,34,12.80
2017,05,20,01,35,12.80
2017,05,20,01,36,12.80
2017,05,20,01,37,12.80
2017,05,20,01,38,12.70
2017,05,20,01,39,12.70
2017,05,20,01,40,12.70
2017,05,20,01,41,12.70
2017,05,20,01,42,12.70
2017,05,20,01,43,12.60
2017,05,20,01,44,12.60
2017,05,20,01,45,12.60
2017,05,20,01,46,12.60
2017,05,20,01,47,12.60
2017,05,20,01,48,12.60
2017,05,20,01,49,12.60
2017,05,20,01,50,12.50
2017,05,20,01,51,12.50
2017,05,20,01,52,12.50
2017,05,20,01,53,12.50
2017,05,20,01,54,12.50
2017,05,20,01,55,12.40
2017,05,20,01,56,12.40
2017,05,20,01,57,12.40
2017,05,20,01,58,12.30
2017,05,20,01,59,12.30
2017,05,20,02,00,12.30
2017,05,20,02,01,12.30
2017,05,20,02,02,12.20
2017,05,20,02,03,12.20
2017,05,20,02,04,12.20
2017,05,20,02,05,12.20
2017,05,20,02,06,12.20
2017,05,20,02,07,12.20
2017,05,20,02,08,12.20
2017,05,20,02,09,12.20
2017,05,20,02,10,12.20
2017,05,20,02,11,12.20
2017,05,20,02,12,12.20
2017,05,20,02,13,12.20
2017,05,20,02,14,12.20
2017,05,20,02,15,12.20
2017,05,20,02,16,12.20
2017,05,20,02,17,12.20
2017,05,20,02,18,12.20
2017,05,20,02,19,12.20
2017,05,20,02,20,12.20
2017,05,20,02,21,12.10
2017,05,20,02,22,12.10
2017,05,20,02,23,12.10
2017,05,20,02,24,12.10
2017,05,20,02,25,12.10
2017,05,20,02,26,12.10
2017,05,20,02,27,12.00
2017,05,20,02,28,12.00
2017,05,20,02,29,12.00
2017,05,20,02,30,12.00
2017,05,20,02,31,12.00
2017,05,20,02,32,12.00
2017,05,20,02,33,12.00
2017,05,20,02,34,11.90
2017,05,20,02,35,11.90
2017,05,20,02,36,11.90
2017,05,20,02,37,11.90
2017,05,20,02,38,11.90
2017,05,20,02,39,11.90
2017,05,20,02,40,11.80
2017,05,20,02,41,11.80
2017,05,20,02,42,11.80
2017,05,20,02,43,11.80
2017,05,20,02,44,11.80
2017,05,20,02,45,11.70
2017,05,20,02,46,11.70
2017,05,20,02,47,11.70
2017,05,20,02,48,11.70
2017,05,20,02,49,11.60
2017,05,20,02,50,11.60
2017,05,20,02,51,11.50
2017,05,20,02,52,11.50
2017,05,20,02,53,11.50
2017,05,20,02,54,11.50
2017,05,20,02,55,11.50
2017,05,20,02,56,11.50
2017,05,20,02,57,11.40
2017,05,20,02,58,11.40
2017,05,20,02,59,11.40
2017,05,20,03,00,11.30
2017,05,20,03,01,11.30
2017,05,20,03,02,11.20
2017,05,20,03,03,11.20
2017,05,20,03,04,11.20
2017,05,20,03,05,11.20
2017,05,20,03,06,11.20
2017,05,20,03,07,11.20
2017,05,20,03,08,11.30
2017,05,20,03,09,11.30
2017,05,20,03,10,11.30
2017,05,20,03,11,11.30
2017,05,20,03,12,11.40
2017,05,20,03,13,11.40
2017,05,20,03,14,11.40
2017,05,20,03,15,11.40
2017,05,20,03,16,11.40
2017,05,20,03,17,11.40
2017,05,20,03,18,11.30
2017,05,20,03,19,11.30
2017,05,20,03,20,11.30
2017,05,20,03,21,11.30
2017,05,20,03,22,11.20
2017,05,20,03,23,11.20
2017,05,20,03,24,11.20
2017,05,20,03,25,11.20
2017,05,20,03,26,11.20
2017,05,20,03,27,11.20
2017,05,20,03,28,11.20
2017,05,20,03,29,11.20
2017,05,20,03,30,11.20
2017,05,20,03,31,11.20
2017,05,20,03,32,11.20
2017,05,20,03,33,11.20
2017,05,20,03,34,11.20
2017,05,20,03,35,11.20
2017,05,20,03,36,11.20
2017,05,20,03,37,11.20
2017,05,20,03,38,11.20
2017,05,20,03,39,11.20
2017,05,20,03,40,11.20
2017,05,20,03,41,11.20
2017,05,20,03,42,11.20
2017,05,20,03,43,11.20
2017,05,20,03,44,11.20
2017,05,20,03,45,11.20
2017,05,20,03,46,11.20
2017,05,20,03,47,11.20
2017,05,20,03,48,11.30
2017,05,20,03,49,11.30
2017,05,20,03,50,11.30
2017,05,20,03,51,11.30
2017,05,20,03,52,11.30
2017,05,20,03,53,11.30
2017,05,20,03,54,11.30
2017,05,20,03,55,11.30
2017,05,20,03,56,11.30
2017,05,20,03,57,11.30
2017,05,20,03,58,11.30
2017,05,20,03,59,11.40
2017,05,20,04,00,11.40
2017,05,20,04,01,11.40
2017,05,20,04,02,11.40
2017,05,20,04,03,11.40
2017,05,20,04,04,11.40
2017,05,20,04,05,11.40
2017,05,20,04,06,11.40
2017,05,20,04,07,11.40
2017,05,20,04,08,11.40
2017,05,20,04,09,11.40
2017,05,20,04,10,11.40
2017,05,20,04,11,11.40
2017,05,20,04,12,11.30
2017,05,20,04,13,11.30
2017,05,20,04,14,11.30
2017,05,20,04,15,11.30
2017,05,20,04,16,11.30
2017,05,20,04,17,11.30
2017,05,20,04,18,11.30
2017,05,20,04,19,11.30
2017,05,20,04,20,11.30
2017,05,20,04,21,11.30
2017,05,20,04,22,11.30
2017,05,20,04,23,11.30
2017,05,20,04,24,11.30
2017,05,20,04,25,11.30
2017,05,20,04,26,11.30
2017,05,20,04,27,11.30
2017,05,20,04,28,11.30
2017,05,20,04,29,11.30
2017,05,20,04,30,11.30
2017,05,20,04,31,11.30
2017,05,20,04,32,11.30
2017,05,20,04,33,11.30
2017,05,20,04,34,11.30
2017,05,20,04,35,11.30
2017,05,20,04,36,11.30
2017,05,20,04,37,11.30
2017,05,20,04,38,11.30
2017,05,20,04,39,11.30
2017,05,20,04,40,11.30
2017,05,20,04,41,11.30
2017,05,20,04,42,11.30
2017,05,20,04,43,11.30
2017,05,20,04,44,11.30
2017,05,20,04,45,11.30
2017,05,20,04,46,11.30
2017,05,20,04,47,11.30
2017,05,20,04,48,11.30
2017,05,20,04,49,11.30
2017,05,20,04,50,11.30
2017,05,20,04,51,11.30
2017,05,20,04,52,11.30
2017,05,20,04,53,11.30
2017,05,20,04,54,11.30
2017,05,20,04,55,11.30
2017,05,20,04,56,11.30
2017,05,20,04,57,11.30
2017,05,20,04,58,11.30
2017,05,20,04,59,11.30
2017,05,20,05,00,11.30
2017,05,20,05,01,11.30
2017,05,20,05,02,11.20
2017,05,20,05,03,11.20
2017,05,20,05,04,11.20
2017,05,20,05,05,11.20
2017,05,20,05,06,11.20
2017,05,20,05,07,11.20
2017,05,20,05,08,11.20
2017,05,20,05,09,11.20
2017,05,20,05,10,11.20
2017,05,20,05,11,11.20
2017,05,20,05,12,11.20
2017,05,20,05,13,11.10
2017,05,20,05,14,11.10
2017,05,20,05,15,11.10
2017,05,20,05,16,11.00
2017,05,20,05,17,11.00
2017,05,20,05,18,11.00
2017,05,20,05,19,11.00
2017,05,20,05,20,11.00
2017,05,20,05,21,11.00
2017,05,20,05,22,10.90
2017,05,20,05,23,10.90
2017,05,20,05,24,10.90
2017,05,20,05,25,10.90
2017,05,20,05,26,10.90
2017,05,20,05,27,10.90
2017,05,20,05,28,11.00
2017,05,20,05,29,11.00
2017,05,20,05,30,11.00
2017,05,20,05,31,11.00
2017,05,20,05,32,11.00
2017,05,20,05,33,11.00
2017,05,20,05,34,10.90
2017,05,20,05,35,11.00
2017,05,20,05,36,10.90
2017,05,20,05,37,10.90
2017,05,20,05,38,10.90
2017,05,20,05,39,10.90
2017,05,20,05,40,10.90
2017,05,20,05,41,10.90
2017,05,20,05,42,10.90
2017,05,20,05,43,10.80
2017,05,20,05,44,10.80
2017,05,20,05,45,10.80
2017,05,20,05,46,10.80
2017,05,20,05,47,10.80
2017,05,20,05,48,10.80
2017,05,20,05,49,10.80
2017,05,20,05,50,10.80
2017,05,20,05,51,10.80
2017,05,20,05,52,10.90
2017,05,20,05,53,10.90
2017,05,20,05,54,10.90
2017,05,20,05,55,10.90
2017,05,20,05,56,11.00
2017,05,20,05,57,11.00
2017,05,20,05,58,11.00
2017,05,20,05,59,11.00
2017,05,20,06,00,11.00
2017,05,20,06,01,11.00
2017,05,20,06,02,11.00
2017,05,20,06,03,11.00
2017,05,20,06,04,11.00
2017,05,20,06,05,11.00
2017,05,20,06,06,11.10
2017,05,20,06,07,11.10
2017,05,20,06,08,11.10
2017,05,20,06,09,11.10
2017,05,20,06,10,11.10
2017,05,20,06,11,11.20
2017,05,20,06,12,11.20
2017,05,20,06,13,11.20
2017,05,20,06,14,11.20
2017,05,20,06,15,11.30
2017,05,20,06,16,11.30
2017,05,20,06,17,11.30
2017,05,20,06,18,11.30
2017,05,20,06,19,11.30
2017,05,20,06,20,11.30
2017,05,20,06,21,11.30
2017,05,20,06,22,11.30
2017,05,20,06,23,11.30
2017,05,20,06,24,11.30
2017,05,20,06,25,11.30
2017,05,20,06,26,11.30
2017,05,20,06,27,11.30
2017,05,20,06,28,11.30
2017,05,20,06,29,11.30
2017,05,20,06,30,11.40
2017,05,20,06,31,11.50
2017,05,20,06,32,11.50
2017,05,20,06,33,11.50
2017,05,20,06,34,11.60
2017,05,20,06,35,11.60
2017,05,20,06,36,11.60
2017,05,20,06,37,11.60
2017,05,20,06,38,11.50
2017,05,20,06,39,11.50
2017,05,20,06,40,11.50
2017,05,20,06,41,11.50
2017,05,20,06,42,11.50
2017,05,20,06,43,11.50
2017,05,20,06,44,11.60
2017,05,20,06,45,11.60
2017,05,20,06,46,11.60
2017,05,20,06,47,11.60
2017,05,20,06,48,11.60
2017,05,20,06,49,11.70
2017,05,20,06,50,11.70
2017,05,20,06,51,11.70
2017,05,20,06,52,11.70
2017,05,20,06,53,11.80
2017,05,20,06,54,11.90
2017,05,20,06,55,12.00
2017,05,20,06,56,12.00
2017,05,20,06,57,12.10
2017,05,20,06,58,12.20
2017,05,20,06,59,12.30
2017,05,20,07,00,12.40
2017,05,20,07,01,12.40
2017,05,20,07,02,12.50
2017,05,20,07,03,12.60
2017,05,20,07,04,12.60
2017,05,20,07,05,12.70
2017,05,20,07,06,12.70
2017,05,20,07,07,12.70
2017,05,20,07,08,12.80
2017,05,20,07,09,12.80
2017,05,20,07,10,12.80
2017,05,20,07,11,12.90
2017,05,20,07,12,12.90
2017,05,20,07,13,13.00
2017,05,20,07,14,13.00
2017,05,20,07,15,13.10
2017,05,20,07,16,13.10
2017,05,20,07,17,13.20
2017,05,20,07,18,13.20
2017,05,20,07,19,13.30
2017,05,20,07,20,13.30
2017,05,20,07,21,13.40
2017,05,20,07,22,13.50
2017,05,20,07,23,13.50
2017,05,20,07,24,13.60
2017,05,20,07,25,13.70
2017,05,20,07,26,13.70
2017,05,20,07,27,13.80
2017,05,20,07,28,13.90
2017,05,20,07,29,14.00
2017,05,20,07,30,14.00
2017,05,20,07,31,14.10
2017,05,20,07,32,14.20
2017,05,20,07,33,14.20
2017,05,20,07,34,14.30
2017,05,20,07,35,14.40
2017,05,20,07,36,14.40
2017,05,20,07,37,14.50
2017,05,20,07,38,14.50
2017,05,20,07,39,14.60
2017,05,20,07,40,14.60
2017,05,20,07,41,14.60
2017,05,20,07,42,14.60
2017,05,20,07,43,14.70
2017,05,20,07,44,14.70
2017,05,20,07,45,14.70
2017,05,20,07,46,14.70
2017,05,20,07,47,14.70
2017,05,20,07,48,14.70
2017,05,20,07,49,14.70
2017,05,20,07,50,14.70
2017,05,20,07,51,14.70
2017,05,20,07,52,14.70
2017,05,20,07,53,14.70
2017,05,20,07,54,14.70
2017,05,20,07,55,14.70
2017,05,20,07,56,14.70
2017,05,20,07,57,14.70
2017,05,20,07,58,14.70
2017,05,20,07,59,14.80
2017,05,20,08,00,14.80
2017,05,20,08,01,14.80
2017,05,20,08,02,14.80
2017,05,20,08,03,14.80
2017,05,20,08,04,14.80
2017,05,20,08,05,14.80
2017,05,20,08,06,14.80
2017,05,20,08,07,14.80
2017,05,20,08,08,14.80
2017,05,20,08,09,14.80
2017,05,20,08,10,14.80
2017,05,20,08,11,14.80
2017,05,20,08,12,14.80
2017,05,20,08,13,14.80
2017,05,20,08,14,14.80
2017,05,20,08,15,14.90
2017,05,20,08,16,14.90
2017,05,20,08,17,14.90
2017,05,20,08,18,14.90
2017,05,20,08,19,14.90
2017,05,20,08,20,15.00
2017,05,20,08,21,15.00
2017,05,20,08,22,15.00
2017,05,20,08,23,15.10
2017,05,20,08,24,15.10
2017,05,20,08,25,15.10
2017,05,20,08,26,15.10
2017,05,20,08,27,15.20
2017,05,20,08,28,15.20
2017,05,20,08,29,15.20
2017,05,20,08,30,15.30
2017,05,20,08,31,15.30
2017,05,20,08,32,15.30
2017,05,20,08,33,15.40
2017,05,20,08,34,15.50
2017,05,20,08,35,15.50
2017,05,20,08,36,15.60
2017,05,20,08,37,15.60
2017,05,20,08,38,15.60
2017,05,20,08,39,15.60
2017,05,20,08,40,15.60
2017,05,20,08,41,15.60
2017,05,20,08,42,15.50
2017,05,20,08,43,15.50
2017,05,20,08,44,15.50
2017,05,20,08,45,15.50
2017,05,20,08,46,15.40
2017,05,20,08,47,15.50
2017,05,20,08,48,15.50
2017,05,20,08,49,15.50
2017,05,20,08,50,15.50
2017,05,20,08,51,15.50
2017,05,20,08,52,15.60
2017,05,20,08,53,15.60
2017,05,20,08,54,15.60
2017,05,20,08,55,15.60
2017,05,20,08,56,15.60
2017,05,20,08,57,15.60
2017,05,20,08,58,15.60
2017,05,20,08,59,15.50
2017,05,20,09,00,15.50
2017,05,20,09,01,15.60
2017,05,20,09,02,15.60
2017,05,20,09,03,15.60
2017,05,20,09,04,15.70
2017,05,20,09,05,15.70
2017,05,20,09,06,15.70
2017,05,20,09,07,15.80
2017,05,20,09,08,15.90
2017,05,20,09,09,15.90
2017,05,20,09,10,16.00
2017,05,20,09,11,16.00
2017,05,20,09,12,16.10
2017,05,20,09,13,16.10
2017,05,20,09,14,16.20
2017,05,20,09,15,16.20
2017,05,20,09,16,16.20
2017,05,20,09,17,16.20
2017,05,20,09,18,16.20
2017,05,20,09,19,16.20
2017,05,20,09,20,16.20
2017,05,20,09,21,16.30
2017,05,20,09,22,16.30
2017,05,20,09,23,16.40
2017,05,20,09,24,16.50
2017,05,20,09,25,16.60
2017,05,20,09,26,16.70
2017,05,20,09,27,16.70
2017,05,20,09,28,16.70
2017,05,20,09,29,16.80
2017,05,20,09,30,16.80
2017,05,20,09,31,16.80
2017,05,20,09,32,16.90
2017,05,20,09,33,16.90
2017,05,20,09,34,16.90
2017,05,20,09,35,16.80
2017,05,20,09,36,16.80
2017,05,20,09,37,16.80
2017,05,20,09,38,16.80
2017,05,20,09,39,16.80
2017,05,20,09,40,16.90
2017,05,20,09,41,16.90
2017,05,20,09,42,17.00
2017,05,20,09,43,17.10
2017,05,20,09,44,17.20
2017,05,20,09,45,17.20
2017,05,20,09,46,17.30
2017,05,20,09,47,17.30
2017,05,20,09,48,17.30
2017,05,20,09,49,17.30
2017,05,20,09,50,17.40
2017,05,20,09,51,17.40
2017,05,20,09,52,17.50
2017,05,20,09,53,17.50
2017,05,20,09,54,17.60
2017,05,20,09,55,17.60
2017,05,20,09,56,17.60
2017,05,20,09,57,17.70
2017,05,20,09,58,17.70
2017,05,20,09,59,17.70
2017,05,20,10,00,17.70
2017,05,20,10,01,17.70
2017,05,20,10,02,17.70
2017,05,20,10,03,17.70
2017,05,20,10,04,17.70
2017,05,20,10,05,17.70
2017,05,20,10,06,17.80
2017,05,20,10,07,17.80
2017,05,20,10,08,17.80
2017,05,20,10,09,17.80
2017,05,20,10,10,17.80
2017,05,20,10,11,17.80
2017,05,20,10,12,17.80
2017,05,20,10,13,17.80
2017,05,20,10,14,17.70
2017,05,20,10,15,17.70
2017,05,20,10,16,17.60
2017,05,20,10,17,17.60
2017,05,20,10,18,17.60
2017,05,20,10,19,17.60
2017,05,20,10,20,17.70
2017,05,20,10,21,17.70
2017,05,20,10,22,17.70
2017,05,20,10,23,17.70
2017,05,20,10,24,17.60
2017,05,20,10,25,17.50
2017,05,20,10,26,17.50
2017,05,20,10,27,17.40
2017,05,20,10,28,17.50
2017,05,20,10,29,17.50
2017,05,20,10,30,17.60
2017,05,20,10,31,17.60
2017,05,20,10,32,17.60
2017,05,20,10,33,17.60
2017,05,20,10,34,17.60
2017,05,20,10,35,17.60
2017,05,20,10,36,17.70
2017,05,20,10,37,17.70
2017,05,20,10,38,17.80
2017,05,20,10,39,17.80
2017,05,20,10,40,17.70
2017,05,20,10,41,17.70
2017,05,20,10,42,17.70
2017,05,20,10,43,17.80
2017,05,20,10,44,17.80
2017,05,20,10,45,17.80
2017,05,20,10,46,17.80
2017,05,20,10,47,17.80
2017,05,20,10,48,17.80
2017,05,20,10,49,17.80
2017,05,20,10,50,17.80
2017,05,20,10,51,17.80
2017,05,20,10,52,17.90
2017,05,20,10,53,17.90
2017,05,20,10,54,17.90
2017,05,20,10,55,18.00
2017,05,20,10,56,18.00
2017,05,20,10,57,18.10
2017,05,20,10,58,18.10
2017,05,20,10,59,18.10
2017,05,20,11,00,18.10
2017,05,20,11,01,18.10
2017,05,20,11,02,18.10
2017,05,20,11,03,18.00
2017,05,20,11,04,18.00
2017,05,20,11,05,17.90
2017,05,20,11,06,17.80
2017,05,20,11,07,17.80
2017,05,20,11,08,17.80
2017,05,20,11,09,17.80
2017,05,20,11,10,17.90
2017,05,20,11,11,17.90
2017,05,20,11,12,18.00
2017,05,20,11,13,18.10
2017,05,20,11,14,18.10
2017,05,20,11,15,18.20
2017,05,20,11,16,18.20
2017,05,20,11,17,18.20
2017,05,20,11,18,18.10
2017,05,20,11,19,18.00
2017,05,20,11,20,17.90
2017,05,20,11,21,17.80
2017,05,20,11,22,17.80
2017,05,20,11,23,17.80
2017,05,20,11,24,17.90
2017,05,20,11,25,18.00
2017,05,20,11,26,18.00
2017,05,20,11,27,18.10
2017,05,20,11,28,18.10
2017,05,20,11,29,18.20
2017,05,20,11,30,18.30
2017,05,20,11,31,18.30
2017,05,20,11,32,18.40
2017,05,20,11,33,18.50
2017,05,20,11,34,18.60
2017,05,20,11,35,18.70
2017,05,20,11,36,18.80
2017,05,20,11,37,18.80
2017,05,20,11,38,18.80
2017,05,20,11,39,18.80
2017,05,20,11,40,18.80
2017,05,20,11,41,18.70
2017,05,20,11,42,18.60
2017,05,20,11,43,18.40
2017,05,20,11,44,18.30
2017,05,20,11,45,18.20
2017,05,20,11,46,18.30
2017,05,20,11,47,18.30
2017,05,20,11,48,18.40
2017,05,20,11,49,18.50
2017,05,20,11,50,18.50
2017,05,20,11,51,18.60
2017,05,20,11,52,18.60
2017,05,20,11,53,18.60
2017,05,20,11,54,18.60
2017,05,20,11,55,18.60
2017,05,20,11,56,18.60
2017,05,20,11,57,18.60
2017,05,20,11,58,18.70
2017,05,20,11,59,18.70
2017,05,20,12,00,18.70
2017,05,20,12,01,18.80
2017,05,20,12,02,18.80
2017,05,20,12,03,18.80
2017,05,20,12,04,18.80
2017,05,20,12,05,18.80
2017,05,20,12,06,18.80
2017,05,20,12,07,18.90
2017,05,20,12,08,18.90
2017,05,20,12,09,19.00
2017,05,20,12,10,19.10
2017,05,20,12,11,19.10
2017,05,20,12,12,19.20
2017,05,20,12,13,19.30
2017,05,20,12,14,19.30
2017,05,20,12,15,19.30
2017,05,20,12,16,19.40
2017,05,20,12,17,19.50
2017,05,20,12,18,19.50
2017,05,20,12,19,19.60
2017,05,20,12,20,19.50
2017,05,20,12,21,19.50
2017,05,20,12,22,19.40
2017,05,20,12,23,19.50
2017,05,20,12,24,19.50
2017,05,20,12,25,19.50
2017,05,20,12,26,19.60
2017,05,20,12,27,19.60
2017,05,20,12,28,19.60
2017,05,20,12,29,19.60
2017,05,20,12,30,19.50
2017,05,20,12,31,19.40
2017,05,20,12,32,19.20
2017,05,20,12,33,19.10
2017,05,20,12,34,19.10
2017,05,20,12,35,19.00
2017,05,20,12,36,19.00
2017,05,20,12,37,19.00
2017,05,20,12,38,19.00
2017,05,20,12,39,18.90
2017,05,20,12,40,19.00
2017,05,20,12,41,19.00
2017,05,20,12,42,19.10
2017,05,20,12,43,19.10
2017,05,20,12,44,19.20
2017,05,20,12,45,19.30
2017,05,20,12,46,19.40
2017,05,20,12,47,19.40
2017,05,20,12,48,19.40
2017,05,20,12,49,19.20
2017,05,20,12,50,19.10
2017,05,20,12,51,18.90
2017,05,20,12,52,18.90
2017,05,20,12,53,18.90
2017,05,20,12,54,18.90
2017,05,20,12,55,19.00
2017,05,20,12,56,19.00
2017,05,20,12,57,19.00
2017,05,20,12,58,18.90
2017,05,20,12,59,18.90
2017,05,20,13,00,18.80
2017,05,20,13,01,18.80
2017,05,20,13,02,18.80
2017,05,20,13,03,18.80
2017,05,20,13,04,18.80
2017,05,20,13,05,18.70
2017,05,20,13,06,18.70
2017,05,20,13,07,18.60
2017,05,20,13,08,18.50
2017,05,20,13,09,18.50
2017,05,20,13,10,18.40
2017,05,20,13,11,18.40
2017,05,20,13,12,18.40
2017,05,20,13,13,18.40
2017,05,20,13,14,18.40
2017,05,20,13,15,18.40
2017,05,20,13,16,18.40
2017,05,20,13,17,18.40
2017,05,20,13,18,18.40
2017,05,20,13,19,18.40
2017,05,20,13,20,18.40
2017,05,20,13,21,18.50
2017,05,20,13,22,18.50
2017,05,20,13,23,18.60
2017,05,20,13,24,18.60
2017,05,20,13,25,18.50
2017,05,20,13,26,18.50
2017,05,20,13,27,18.50
2017,05,20,13,28,18.50
2017,05,20,13,29,18.60
2017,05,20,13,30,18.60
2017,05,20,13,31,18.60
2017,05,20,13,32,18.50
2017,05,20,13,33,18.50
2017,05,20,13,34,18.40
2017,05,20,13,35,18.40
2017,05,20,13,36,18.40
2017,05,20,13,37,18.50
2017,05,20,13,38,18.60
2017,05,20,13,39,18.70
2017,05,20,13,40,18.80
2017,05,20,13,41,18.80
2017,05,20,13,42,18.80
2017,05,20,13,43,18.80
2017,05,20,13,44,18.80
2017,05,20,13,45,18.70
2017,05,20,13,46,18.70
2017,05,20,13,47,18.60
2017,05,20,13,48,18.60
2017,05,20,13,49,18.60
2017,05,20,13,50,18.60
2017,05,20,13,51,18.60
2017,05,20,13,52,18.70
2017,05,20,13,53,18.70
2017,05,20,13,54,18.70
2017,05,20,13,55,18.70
2017,05,20,13,56,18.80
2017,05,20,13,57,18.80
2017,05,20,13,58,18.70
2017,05,20,13,59,18.70
2017,05,20,14,00,18.70
2017,05,20,14,01,18.70
2017,05,20,14,02,18.70
2017,05,20,14,03,18.80
2017,05,20,14,04,18.80
2017,05,20,14,05,18.80
2017,05,20,14,06,18.90
2017,05,20,14,07,18.90
2017,05,20,14,08,19.00
2017,05,20,14,09,19.00
2017,05,20,14,10,19.10
2017,05,20,14,11,19.20
2017,05,20,14,12,19.20
2017,05,20,14,13,19.30
2017,05,20,14,14,19.40
2017,05,20,14,15,19.50
2017,05,20,14,16,19.50
2017,05,20,14,17,19.60
2017,05,20,14,18,19.60
2017,05,20,14,19,19.60
2017,05,20,14,20,19.70
2017,05,20,14,21,19.80
2017,05,20,14,22,19.90
2017,05,20,14,23,20.00
2017,05,20,14,24,20.10
2017,05,20,14,25,20.10
2017,05,20,14,26,20.10
2017,05,20,14,27,20.20
2017,05,20,14,28,20.20
2017,05,20,14,29,20.20
2017,05,20,14,30,20.30
2017,05,20,14,31,20.30
2017,05,20,14,32,20.40
2017,05,20,14,33,20.50
2017,05,20,14,34,20.60
2017,05,20,14,35,20.60
2017,05,20,14,36,20.70
2017,05,20,14,37,20.70
2017,05,20,14,38,20.60
2017,05,20,14,39,20.60
2017,05,20,14,40,20.60
2017,05,20,14,41,20.50
2017,05,20,14,42,20.50
2017,05,20,14,43,20.50
2017,05,20,14,44,20.50
2017,05,20,14,45,20.50
2017,05,20,14,46,20.50
2017,05,20,14,47,20.60
2017,05,20,14,48,20.60
2017,05,20,14,49,20.60
2017,05,20,14,50,20.60
2017,05,20,14,51,20.60
2017,05,20,14,52,20.60
2017,05,20,14,53,20.50
2017,05,20,14,54,20.40
2017,05,20,14,55,20.40
2017,05,20,14,56,20.30
2017,05,20,14,57,20.30
2017,05,20,14,58,20.30
2017,05,20,14,59,20.30
2017,05,20,15,00,20.20
2017,05,20,15,01,20.20
2017,05,20,15,02,20.10
2017,05,20,15,03,20.10
2017,05,20,15,04,20.10
2017,05,20,15,05,20.10
2017,05,20,15,06,20.10
2017,05,20,15,07,20.10
2017,05,20,15,08,20.00
2017,05,20,15,09,20.00
2017,05,20,15,10,19.90
2017,05,20,15,11,19.90
2017,05,20,15,12,19.90
2017,05,20,15,13,19.90
2017,05,20,15,14,20.00
2017,05,20,15,15,20.00
2017,05,20,15,16,20.10
2017,05,20,15,17,20.10
2017,05,20,15,18,20.00
2017,05,20,15,19,20.00
2017,05,20,15,20,19.90
2017,05,20,15,21,19.90
2017,05,20,15,22,19.90
2017,05,20,15,23,19.90
2017,05,20,15,24,19.90
2017,05,20,15,25,19.90
2017,05,20,15,26,19.90
2017,05,20,15,27,20.00
2017,05,20,15,28,20.10
2017,05,20,15,29,20.20
2017,05,20,15,30,20.30
2017,05,20,15,31,20.30
2017,05,20,15,32,20.20
2017,05,20,15,33,20.10
2017,05,20,15,34,20.00
2017,05,20,15,35,20.00
2017,05,20,15,36,19.90
2017,05,20,15,37,19.90
2017,05,20,15,38,19.90
2017,05,20,15,39,19.90
2017,05,20,15,40,19.90
2017,05,20,15,41,20.00
2017,05,20,15,42,20.10
2017,05,20,15,43,20.10
2017,05,20,15,44,20.20
2017,05,20,15,45,20.20
2017,05,20,15,46,20.20
2017,05,20,15,47,20.20
2017,05,20,15,48,20.10
2017,05,20,15,49,20.10
2017,05,20,15,50,20.20
2017,05,20,15,51,20.20
2017,05,20,15,52,20.20
2017,05,20,15,53,20.20
2017,05,20,15,54,20.20
2017,05,20,15,55,20.30
2017,05,20,15,56,20.40
2017,05,20,15,57,20.50
2017,05,20,15,58,20.50
2017,05,20,15,59,20.60
2017,05,20,16,00,20.60
2017,05,20,16,01,20.70
2017,05,20,16,02,20.80
2017,05,20,16,03,20.80
2017,05,20,16,04,20.80
2017,05,20,16,05,20.80
2017,05,20,16,06,20.80
2017,05,20,16,07,20.90
2017,05,20,16,08,21.00
2017,05,20,16,09,21.10
2017,05,20,16,10,21.10
2017,05,20,16,11,21.10
2017,05,20,16,12,21.10
2017,05,20,16,13,21.10
2017,05,20,16,14,21.10
2017,05,20,16,15,21.20
2017,05,20,16,16,21.20
2017,05,20,16,17,21.20
2017,05,20,16,18,21.20
2017,05,20,16,19,21.20
2017,05,20,16,20,21.20
2017,05,20,16,21,21.30
2017,05,20,16,22,21.30
2017,05,20,16,23,21.40
2017,05,20,16,24,21.40
2017,05,20,16,25,21.40
2017,05,20,16,26,21.40
2017,05,20,16,27,21.30
2017,05,20,16,28,21.30
2017,05,20,16,29,21.20
2017,05,20,16,30,21.20
2017,05,20,16,31,21.20
2017,05,20,16,32,21.30
2017,05,20,16,33,21.30
2017,05,20,16,34,21.40
2017,05,20,16,35,21.40
2017,05,20,16,36,21.40
2017,05,20,16,37,21.50
2017,05,20,16,38,21.60
2017,05,20,16,39,21.70
2017,05,20,16,40,21.70
2017,05,20,16,41,21.70
2017,05,20,16,42,21.70
2017,05,20,16,43,21.60
2017,05,20,16,44,21.60
2017,05,20,16,45,21.70
2017,05,20,16,46,21.70
2017,05,20,16,47,21.80
2017,05,20,16,48,21.80
2017,05,20,16,49,21.80
2017,05,20,16,50,21.80
2017,05,20,16,51,21.80
2017,05,20,16,52,21.70
2017,05,20,16,53,21.70
2017,05,20,16,54,21.60
2017,05,20,16,55,21.60
2017,05,20,16,56,21.60
2017,05,20,16,57,21.60
2017,05,20,16,58,21.60
2017,05,20,16,59,21.60
2017,05,20,17,00,21.60
2017,05,20,17,01,21.50
2017,05,20,17,02,21.50
2017,05,20,17,03,21.50
2017,05,20,17,04,21.50
2017,05,20,17,05,21.50
2017,05,20,17,06,21.50
2017,05,20,17,07,21.50
2017,05,20,17,08,21.40
2017,05,20,17,09,21.40
2017,05,20,17,10,21.40
2017,05,20,17,11,21.40
2017,05,20,17,12,21.40
2017,05,20,17,13,21.40
2017,05,20,17,14,21.50
2017,05,20,17,15,21.60
2017,05,20,17,16,21.60
2017,05,20,17,17,21.70
2017,05,20,17,18,21.70
2017,05,20,17,19,21.70